Bartlesville, OK

4:12 PM CDT on August 19, 2017 (GMT -0500)
Bartlesville Municipal

Weather History for KBVO - October, 2012

Change the Weather History Date:

Sunday, October 21, 2012

  Actual Average Record
Temperature  
Mean Temperature 68 °F -  
Max Temperature 86 °F 72 °F 89 °F (1978)
Min Temperature 53 °F 44 °F 26 °F (1987)
Cooling Degree Days 4    
Growing Degree Days 18 (Base 50)    
Moisture  
Dew Point 63 °F    
Average Humidity 77    
Maximum Humidity 100    
Minimum Humidity 55    
Precipitation  
Precipitation 0.00 in - - ()
Sea Level Pressure  
Sea Level Pressure 29.74 in    
Wind  
Wind Speed 7 mph (South)    
Max Wind Speed 17 mph    
Max Gust Speed 26 mph    
Visibility 10 miles    
Events      
Averages and records for this station are not official NWS values.
T = Trace of Precipitation, MM = Missing Value Source: NWS Daily Summary

Daily Weather History Graph

Daily Weather History Graph

Search for Another Location

Airport or City:

Trip Planner

Search our weather history database for the weather conditions in past years. The results will help you decide how hot, cold, wet, or windy it might be!

Date:

Astronomy

Oct. 21, 2012 Rise Set
Actual Time 7:37 AM CDT 6:39 PM CDT
Civil Twilight 7:11 AM CDT 7:05 PM CDT
Nautical Twilight 6:41 AM CDT 7:35 PM CDT
Astronomical Twilight 6:10 AM CDT 8:05 PM CDT
Moon 1:56 PM CDT (10/21) No Moon Set
Length of Visible Light 11h 54m
Length of Day
11h 01m
Waxing Crescent, 45% of the Moon is Illuminated
Oct 21
Waxing Crescent
Oct 21
First Quarter
Oct 29
Full
Nov 6
Last Quarter
Nov 13
New

Hourly Weather History & Observations

Time (CDT) Temp. Heat Index Dew Point Humidity Pressure Visibility Wind Dir Wind Speed Gust Speed Precip Events Conditions
12:53 AM 61.0 °F - 55.0 °F 81% 29.74 in 10.0 mi South 4.6 mph - N/A   Clear
1:53 AM 62.1 °F - 55.9 °F 80% 29.73 in 10.0 mi SSE 4.6 mph - N/A   Clear
2:53 AM 62.1 °F - 55.9 °F 80% 29.73 in 10.0 mi Calm Calm - N/A   Clear
3:53 AM 61.0 °F - 55.9 °F 83% 29.73 in 10.0 mi SSE 3.5 mph - N/A   Clear
4:53 AM 55.0 °F - 54.0 °F 96% 29.73 in 10.0 mi Calm Calm - N/A   Clear
5:53 AM 54.0 °F - 54.0 °F 100% 29.74 in 9.0 mi Calm Calm - N/A   Clear
6:53 AM 53.1 °F - 52.0 °F 96% 29.75 in 9.0 mi Calm Calm - N/A   Clear
7:45 AM 53.6 °F - 53.6 °F 100% 29.77 in 5.0 mi Calm Calm - N/A   Mostly Cloudy
7:53 AM 55.0 °F - 55.0 °F 100% 29.75 in 5.0 mi Calm Calm - N/A   Mostly Cloudy
8:53 AM 66.0 °F - 63.0 °F 90% 29.75 in 10.0 mi South 8.1 mph - N/A   Mostly Cloudy
9:43 AM 69.8 °F - 64.4 °F 83% 29.79 in 10.0 mi South 9.2 mph - N/A   Mostly Cloudy
10:53 AM 75.9 °F - 68.0 °F 76% 29.77 in 10.0 mi South 12.7 mph 21.9 mph N/A   Overcast
11:53 AM 79.0 °F - 69.1 °F 72% 29.76 in 10.0 mi South 13.8 mph 21.9 mph N/A   Overcast
12:31 PM 80.6 °F 83.2 °F 68.0 °F 65% 29.78 in 10.0 mi SSW 16.1 mph 25.3 mph N/A   Overcast
12:53 PM 80.1 °F 82.7 °F 68.0 °F 67% 29.74 in 10.0 mi SSW 16.1 mph 25.3 mph N/A   Overcast
1:53 PM 84.0 °F 87.0 °F 68.0 °F 58% 29.71 in 10.0 mi South 15.0 mph 25.3 mph N/A   Mostly Cloudy
2:53 PM 84.9 °F 88.2 °F 68.0 °F 57% 29.69 in 10.0 mi South 17.3 mph 26.5 mph N/A   Mostly Cloudy
3:53 PM 84.9 °F 87.6 °F 66.9 °F 55% 29.69 in 10.0 mi South 13.8 mph 24.2 mph N/A   Partly Cloudy
4:53 PM 82.9 °F 85.8 °F 68.0 °F 60% 29.69 in 10.0 mi SSE 15.0 mph 24.2 mph N/A   Mostly Cloudy
5:53 PM 82.0 °F 85.5 °F 69.1 °F 65% 29.70 in 10.0 mi SSE 15.0 mph 18.4 mph N/A   Overcast
6:53 PM 79.0 °F - 69.1 °F 72% 29.71 in 10.0 mi SSE 10.4 mph - N/A   Partly Cloudy
7:53 PM 79.0 °F - 68.0 °F 69% 29.73 in 10.0 mi SSE 11.5 mph 23.0 mph N/A   Scattered Clouds
8:53 PM 77.0 °F - 68.0 °F 74% 29.74 in 10.0 mi SSE 8.1 mph - N/A   Partly Cloudy
9:53 PM 77.0 °F - 68.0 °F 74% 29.75 in 10.0 mi South 11.5 mph 16.1 mph N/A   Clear
10:53 PM 75.9 °F - 68.0 °F 76% 29.76 in 10.0 mi South 10.4 mph 16.1 mph N/A   Clear
11:53 PM 75.0 °F - 68.0 °F 79% 29.76 in 10.0 mi South 8.1 mph - N/A   Clear